Location: Newark
(52.2090°N, 4.1550°W)
Time: 07:38:53
(UTC+00:00)

Transit 4A - Pass Details

Date: 29 October 2019
Orbit: 868 x 976 km, 66.8° (Epoch: 14 November)

Event Time Altitude Azimuth Distance (km) Brightness Sun altitude
Exits shadow 03:47:30 77° 32° (NNE) 974 7.9 -30.6°
Drops below altitude 10° 03:53:11 10° 39° (NE) 2,641 10.9 -29.8°
Sets 03:55:41 0° 40° (NE) 3,571 11.8 -29.4°
